Location: Acheville
(50.3840°N, 2.8827°E)
Time: 13:03:06
(UTC+00:00)

ATLAS 5 CENTAUR R/B - Pass Details

Date: 24 October 2021
Orbit: 497 x 1159 km, 63.4° (Epoch: 25 November)

Event Time Altitude Azimuth Distance (km) Brightness Sun altitude
Rises 19:34:31 0° 280° (W) 2,743 6.1 -28.5°
Reaches altitude 10° 19:37:07 10° 298° (WNW) 1,931 5.0 -28.9°
Maximum altitude 19:40:22 20° 347° (NNW) 1,493 3.8 -29.4°
Enters shadow 19:40:57 20° 357° (N) 1,532 3.7 -29.5°
